Location: Gad�tanya
(48.0500°N, 20.8500°E)
Time: 11:02:52
(UTC+00:00)

Cosmos 2297 - Pass Details

Date: 05 July 2020
Orbit: 835 x 859 km, 71.0° (Epoch: 14 August)

Event Time Altitude Azimuth Distance (km) Brightness Sun altitude
Rises 22:47:43 0° 327° (NNW) 3,443 7.8 -19.3°
Reaches altitude 10° 22:50:18 10° 320° (NW) 2,501 6.8 -19.3°
Maximum altitude 22:55:37 40° 253° (WSW) 1,233 4.4 -19.2°
Enters shadow 22:57:30 31° 211° (SSW) 1,453 4.4 -19.2°
